When you browse on this site, cookies collect data to enhance your experience and personalize the content and advertising you see.
Visit our Privacy Policy to learn more. By continuing to use the site, you agree to this use of cookies and data.
  • In Sweden
  • List of Countries
  • For 7 days
  • Water Temperature
  • Weather Map
  • Weather Widgets
  • user-avatar
    Login

    Hourly Weather Nagpur

    Today, 18 January, Saturday

    Time Temperature Precipitation Wind Pressure Humidity
    00:00 +21°C° 0 mm 2 mps 734 mmHg 74%
    01:00 +21°C° 0 mm 2 mps 733 mmHg 76%
    02:00 +20°C° 0 mm 2 mps 733 mmHg 78%
    03:00 +19°C° 0 mm 2 mps 733 mmHg 78%
    04:00 +19°C° 0 mm 2 mps 733 mmHg 79%
    05:00 +18°C° 0 mm 2 mps 733 mmHg 80%
    06:00 +19°C° 0 mm 2 mps 733 mmHg 77%
    07:00 +19°C° 0 mm 3 mps 734 mmHg 73%
    08:00 +20°C° 0 mm 3 mps 735 mmHg 70%
    09:00 +22°C° 0 mm 3 mps 735 mmHg 65%
    10:00 +24°C° 0 mm 3 mps 735 mmHg 61%
    11:00 +25°C° 0 mm 2 mps 735 mmHg 57%
    12:00 +27°C° 0 mm 2 mps 735 mmHg 53%
    13:00 +28°C° 0 mm 2 mps 734 mmHg 49%
    14:00 +29°C° 0 mm 2 mps 733 mmHg 45%
    15:00 +28°C° 0 mm 1 mps 733 mmHg 47%
    16:00 +28°C° 0 mm 1 mps 732 mmHg 49%
    17:00 +24°C° 0 mm 0 mps 733 mmHg 52%
    18:00 +26°C° 0 mm 1 mps 733 mmHg 54%
    19:00 +25°C° 0 mm 1 mps 734 mmHg 56%
    20:00 +24°C° 0 mm 1 mps 734 mmHg 58%
    21:00 +23°C° 0 mm 1 mps 734 mmHg 59%
    22:00 +23°C° 0 mm 1 mps 734 mmHg 61%
    23:00 +22°C° 0 mm 1 mps 733 mmHg 62%

    Tomorrow, 19 January, Sunday

    Time Temperature Precipitation Wind Pressure Humidity
    00:00 +22°C° 0 mm 1 mps 733 mmHg 65%
    01:00 +20°C° 0 mm 2 mps 733 mmHg 67%
    02:00 +20°C° 0 mm 3 mps 733 mmHg 70%
    03:00 +19°C° 0 mm 2 mps 733 mmHg 72%
    04:00 +19°C° 0 mm 2 mps 733 mmHg 75%
    05:00 +18°C° 0 mm 2 mps 733 mmHg 78%
    06:00 +18°C° 0 mm 3 mps 734 mmHg 76%
    07:00 +19°C° 0 mm 3 mps 735 mmHg 73%
    08:00 +20°C° 0 mm 3 mps 735 mmHg 70%
    09:00 +22°C° 0 mm 3 mps 735 mmHg 64%
    10:00 +24°C° 0 mm 3 mps 735 mmHg 57%
    11:00 +26°C° 0 mm 3 mps 735 mmHg 50%
    12:00 +27°C° 0 mm 2 mps 734 mmHg 48%
    13:00 +28°C° 0 mm 1 mps 734 mmHg 46%
    14:00 +27°C° 0 mm 0 mps 733 mmHg 43%
    15:00 +26°C° 0 mm 0 mps 733 mmHg 46%
    16:00 +26°C° 0 mm 0 mps 733 mmHg 48%
    17:00 +25°C° 0 mm 0 mps 733 mmHg 51%
    18:00 +26°C° 0 mm 1 mps 734 mmHg 54%
    19:00 +25°C° 0 mm 2 mps 734 mmHg 57%
    20:00 +24°C° 0 mm 3 mps 735 mmHg 60%
    21:00 +22°C° 0 mm 3 mps 734 mmHg 59%
    22:00 +20°C° 0 mm 3 mps 734 mmHg 57%
    23:00 +19°C° 0 mm 4 mps 734 mmHg 56%

    Day after tomorrow, 20 January, Monday

    Time Temperature Precipitation Wind Pressure Humidity
    00:00 +19°C° 0 mm 3 mps 734 mmHg 54%
    01:00 +18°C° 0 mm 3 mps 734 mmHg 52%
    02:00 +17°C° 0 mm 3 mps 734 mmHg 50%
    03:00 +17°C° 0 mm 3 mps 734 mmHg 50%
    04:00 +17°C° 0 mm 3 mps 734 mmHg 50%
    05:00 +16°C° 0 mm 3 mps 733 mmHg 50%
    06:00 +17°C° 0 mm 3 mps 734 mmHg 49%
    07:00 +17°C° 0 mm 3 mps 735 mmHg 47%
    08:00 +18°C° 0 mm 4 mps 736 mmHg 46%
    09:00 +20°C° 0 mm 3 mps 736 mmHg 43%
    10:00 +22°C° 0 mm 3 mps 735 mmHg 41%
    11:00 +25°C° 0 mm 3 mps 735 mmHg 38%
    12:00 +26°C° 0 mm 2 mps 735 mmHg 38%
    13:00 +27°C° 0 mm 2 mps 734 mmHg 38%
    14:00 +28°C° 0 mm 1 mps 733 mmHg 38%
    15:00 +28°C° 0 mm 1 mps 733 mmHg 41%
    16:00 +25°C° 0 mm 0 mps 733 mmHg 44%
    17:00 +25°C° 0 mm 0 mps 733 mmHg 48%
    18:00 +24°C° 0 mm 0 mps 733 mmHg 49%
    19:00 +24°C° 0 mm 1 mps 734 mmHg 51%
    20:00 +23°C° 0 mm 1 mps 735 mmHg 53%
    21:00 +23°C° 0 mm 2 mps 735 mmHg 54%
    22:00 +23°C° 0 mm 2 mps 734 mmHg 56%
    23:00 +21°C° 0 mm 2 mps 734 mmHg 57%

    21 January, Tuesday

    Time Temperature Precipitation Wind Pressure Humidity
    00:00 +21°C° 0 mm 2 mps 734 mmHg 60%
    01:00 +20°C° 0 mm 2 mps 733 mmHg 62%
    02:00 +19°C° 0 mm 2 mps 733 mmHg 64%
    03:00 +19°C° 0 mm 2 mps 733 mmHg 65%
    04:00 +19°C° 0 mm 1 mps 733 mmHg 66%
    05:00 +19°C° 0 mm 1 mps 733 mmHg 67%
    06:00 +20°C° 0 mm 1 mps 734 mmHg 64%
    07:00 +21°C° 0 mm 1 mps 735 mmHg 61%
    08:00 +21°C° 0 mm 2 mps 736 mmHg 58%
    09:00 +24°C° 0 mm 2 mps 736 mmHg 54%
    10:00 +26°C° 0 mm 3 mps 736 mmHg 49%
    11:00 +29°C° 0 mm 3 mps 736 mmHg 44%
    12:00 +30°C° 0 mm 4 mps 735 mmHg 42%
    13:00 +32°C° 0 mm 4 mps 734 mmHg 41%
    14:00 +33°C° 0 mm 4 mps 733 mmHg 39%
    15:00 +31°C° 0 mm 3 mps 733 mmHg 42%
    16:00 +30°C° 0 mm 2 mps 733 mmHg 44%
    17:00 +29°C° 0 mm 2 mps 733 mmHg 47%
    18:00 +28°C° 0 mm 2 mps 734 mmHg 51%
    19:00 +27°C° 0 mm 2 mps 734 mmHg 54%
    20:00 +26°C° 0 mm 3 mps 735 mmHg 57%
    21:00 +26°C° 0 mm 3 mps 735 mmHg 58%
    22:00 +25°C° 0 mm 3 mps 735 mmHg 59%
    23:00 +25°C° 0 mm 3 mps 734 mmHg 60%

    22 January, Wednesday

    Time Temperature Precipitation Wind Pressure Humidity
    00:00 +24°C° 0 mm 2 mps 734 mmHg 62%
    01:00 +24°C° 0 mm 1 mps 734 mmHg 64%
    02:00 +21°C° 0 mm 0 mps 734 mmHg 66%
    03:00 +21°C° 0 mm 0 mps 734 mmHg 67%
    04:00 +20°C° 0 mm 0 mps 734 mmHg 68%
    05:00 +20°C° 0 mm 0 mps 734 mmHg 69%
    06:00 +23°C° 0 mm 1 mps 735 mmHg 67%
    07:00 +24°C° 0 mm 1 mps 736 mmHg 64%
    08:00 +24°C° 0 mm 1 mps 736 mmHg 62%
    09:00 +26°C° 0 mm 2 mps 736 mmHg 56%
    10:00 +28°C° 0 mm 3 mps 736 mmHg 50%
    11:00 +30°C° 0 mm 4 mps 736 mmHg 43%
    12:00 +32°C° 0 mm 4 mps 735 mmHg 41%
    13:00 +33°C° 0 mm 4 mps 735 mmHg 38%
    14:00 +34°C° 0 mm 4 mps 734 mmHg 36%
    15:00 +33°C° 0 mm 3 mps 733 mmHg 38%
    16:00 +31°C° 0 mm 3 mps 733 mmHg 40%
    17:00 +30°C° 0 mm 2 mps 733 mmHg 42%
    18:00 +29°C° 0 mm 2 mps 733 mmHg 44%
    19:00 +28°C° 0 mm 1 mps 734 mmHg 46%
    20:00 +27°C° 0 mm 1 mps 734 mmHg 48%
    21:00 +26°C° 0 mm 2 mps 734 mmHg 50%
    22:00 +26°C° 0 mm 2 mps 734 mmHg 52%
    23:00 +25°C° 0 mm 2 mps 734 mmHg 54%

    23 January, Thursday

    Time Temperature Precipitation Wind Pressure Humidity
    00:00 +24°C° 0 mm 3 mps 734 mmHg 57%
    01:00 +22°C° 0 mm 3 mps 734 mmHg 61%
    02:00 +21°C° 0 mm 3 mps 734 mmHg 64%
    03:00 +20°C° 0 mm 3 mps 734 mmHg 64%
    04:00 +20°C° 0 mm 3 mps 734 mmHg 64%
    05:00 +19°C° 0 mm 3 mps 734 mmHg 65%
    06:00 +20°C° 0 mm 3 mps 734 mmHg 61%
    07:00 +20°C° 0 mm 3 mps 735 mmHg 57%
    08:00 +21°C° 0 mm 3 mps 736 mmHg 53%
    09:00 +24°C° 0 mm 3 mps 736 mmHg 49%
    10:00 +26°C° 0 mm 3 mps 736 mmHg 44%
    11:00 +28°C° 0 mm 3 mps 735 mmHg 39%
    12:00 +29°C° 0 mm 2 mps 735 mmHg 37%
    13:00 +30°C° 0 mm 1 mps 734 mmHg 35%
    14:00 +31°C° 0 mm 1 mps 733 mmHg 33%
    15:00 +30°C° 0 mm 1 mps 733 mmHg 34%
    16:00 +30°C° 0 mm 1 mps 733 mmHg 36%
    17:00 +29°C° 0 mm 1 mps 733 mmHg 37%
    18:00 +27°C° 0 mm 1 mps 733 mmHg 39%
    19:00 +26°C° 0 mm 2 mps 734 mmHg 42%
    20:00 +24°C° 0 mm 2 mps 734 mmHg 44%
    21:00 +23°C° 0 mm 2 mps 734 mmHg 45%
    22:00 +21°C° 0 mm 3 mps 734 mmHg 46%
    23:00 +20°C° 0 mm 3 mps 734 mmHg 46%
    Show more